RH
40 37 36 42 42 37 42 46 60 48 39 34 33 35 41 48 51 52 54 68 71 73 76 73 68 70 78 83 71 65 84 79 85 87 85 80 77 74 72 68 58 59 58 60
58 47 41 49 41 39 43 43 45 45 45 34 38 47 51 52 53 56 70 76 81 81 64 56 60 75 85 68 71 88 81 83 81 81 76 70 67 61 56 55 58 60 61 63
84 61 63 78 51 39 38 42 41 50 38 42 45 51 54 58 64 80 89 89 68 73 53 60 70 87 68 65 75 85 81 79 81 83 68 63 56 51 55 59 63 66 68 75
96 91 84 45 34 35 40 38 33 35 41 49 52 54 52 78 90 99 98 80 65 59 55 63 72 71 68 66 71 76 78 78 85 77 66 58 55 57 60 60 64 67 73 79
96 71 52 44 39 42 44 44 39 47 53 58 58 54 58 95 96 99 88 76 67 60 58 63 72 70 71 69 70 72 74 83 86 72 69 56 56 60 63 66 69 73 82 85
88 94 82 44 39 45 45 56 56 71 84 86 67 83 86 97 98 72 71 65 57 50 55 67 78 75 79 76 72 68 75 86 76 75 66 59 63 66 71 69 72 86 99 100
85 94 67 42 48 51 81 78 75 84 91 93 87 95 100 98 80 59 56 54 52 48 49 61 69 74 81 72 65 64 72 77 78 75 62 64 66 68 72 74 88 99 99 98
93 96 94 48 47 83 66 76 90 92 90 88 90 98 79 60 52 48 51 50 46 47 50 56 65 72 75 61 58 70 73 74 78 72 66 68 69 70 75 79 92 92 92 92
66 64 43 48 59 68 79 85 90 95 88 91 83 64 53 48 46 47 50 47 47 54 59 57 60 71 70 58 67 81 78 78 76 72 72 73 73 80 82 84 96 97 91 89
70 55 49 60 65 83 95 98 93 86 79 72 62 52 49 46 45 49 46 48 56 58 56 60 65 82 85 84 91 92 82 75 73 72 75 80 83 86 81 96 97 94 90 88
70 62 63 62 88 94 94 96 82 78 70 58 48 47 45 44 43 44 48 54 59 59 60 58 62 87 97 99 93 81 72 71 77 85 89 91 87 85 95 100 94 91 96 99
93 76 75 87 93 95 99 86 70 64 54 48 47 48 44 41 43 47 52 60 60 64 70 71 74 83 99 96 95 76 57 81 87 85 99 100 86 88 94 94 84 73 79 87
78 86 90 90 92 88 73 66 62 54 52 51 47 42 46 50 52 58 60 63 68 80 84 85 98 100 98 95 80 61 59 65 97 100 100 100 100 100 100 99 97 94 94 89
85 77 90 86 80 77 69 58 58 55 51 46 46 53 55 57 59 60 65 77 94 98 98 96 99 99 93 81 75 62 54 80 89 100 100 100 100 100 100 100 100 98 98 95
82 92 85 81 72 62 59 56 54 46 44 51 54 60 67 67 67 75 89 94 100 100 97 95 100 98 85 82 68 78 86 100 88 87 93 90 99 100 100 100 100 100 97 96
80 73 66 62 57 52 48 43 45 51 54 54 58 60 71 77 83 75 73 87 95 96 96 98 98 94 92 83 98 98 100 98 92 99 100 100 100 100 100 100 100 100 98 100
74 68 63 54 41 44 50 55 59 57 49 61 50 58 64 70 73 75 77 88 88 91 94 97 96 100 94 94 100 100 100 100 97 100 100 100 100 100 100 100 100 100 100 98
60 51 44 46 48 55 62 60 46 50 52 56 58 62 70 79 89 91 91 98 91 89 94 94 88 90 83 99 100 100 100 100 100 100 100 100 99 100 100 100 100 100 100 100
34 39 33 33 45 48 47 49 53 56 53 55 58 63 75 78 86 92 100 99 95 92 95 93 95 80 95 100 100 100 100 100 100 100 100 99 100 100 100 100 100 100 100 100
36 32 33 42 52 54 54 56 59 56 55 62 67 72 78 77 93 99 90 95 98 99 94 99 100 95 100 100 100 100 100 100 100 100 100 100 100 100 100 100 100 100 100 100
32 38 45 51 55 57 60 62 60 57 60 67 76 76 87 94 100 97 91 99 97 92 90 100 100 94 100 100 100 100 100 100 100 100 100 100 100 100 100 100 100 100 100 100
36 39 51 60 60 60 63 56 54 63 70 71 74 78 81 87 88 90 92 97 98 89 89 95 97 89 92 86 100 92 97 100 100 100 100 100 100 99 100 100 100 100 100 100
41 57 65 63 66 67 61 54 49 51 66 75 73 91 91 89 94 97 99 98 96 87 92 92 80 70 72 83 100 100 100 100 100 100 100 100 99 94 94 96 99 98 100 100
58 63 65 69 69 65 62 54 53 53 65 72 94 100 100 99 92 98 99 98 97 90 97 90 86 80 87 92 99 100 100 100 100 100 100 100 96 92 93 93 93 95 95 94
59 65 70 69 66 72 68 63 56 58 84 98 99 100 100 96 100 96 100 100 95 93 93 93 97 93 94 100 99 98 95 90 90 91 98 99 100 96 92 94 92 93 95 94
61 69 74 66 63 66 68 74 69 77 98 97 99 100 100 96 100 100 100 100 98 94 91 91 94 95 99 100 97 97 92 88 85 84 84 84 84 87 91 93 92 94 94 93
65 66 58 57 64 74 80 94 89 90 100 99 99 100 100 100 99 100 100 100 100 99 96 99 98 98 98 100 95 98 92 86 77 76 77 78 76 77 77 81 88 92 94 92
Wind_Speed
8 11 13 12 14 12 15 15 11 15 15 15 14 13 12 7 16 22 19 16 16 14 14 18 14 12 12 13 18 21 14 17 12 10 11 14 15 15 15 16 18 18 18 18
4 8 10 12 15 15 13 13 13 15 16 7 10 9 7 17 21 20 14 13 15 17 12 13 13 16 14 17 17 13 16 11 9 11 13 14 14 17 18 18 17 17 18 18
4 9 13 6 4 4 3 4 8 10 8 8 7 12 18 21 18 10 12 15 18 14 16 17 19 16 18 20 14 12 14 10 12 13 13 14 16 17 17 18 18 19 19 18
3 5 3 3 5 9 13 13 8 9 3 6 12 21 25 6 6 9 17 15 17 16 20 22 20 19 20 19 15 15 14 14 13 13 13 15 16 17 18 19 20 19 19 18
2 4 15 12 3 2 2 11 4 3 9 17 25 23 10 8 15 19 13 16 20 21 24 25 22 21 21 19 17 16 17 16 13 13 13 15 16 17 19 20 20 19 19 20
2 4 4 3 4 5 4 8 4 11 20 22 24 12 6 20 17 13 16 18 21 24 25 23 21 19 21 20 19 18 15 12 13 13 13 15 16 18 20 21 21 19 20 20
6 6 8 6 5 1 3 3 14 12 9 11 6 8 17 13 13 15 18 20 22 23 25 24 24 23 21 19 16 13 12 14 14 13 13 14 17 19 22 23 21 21 23 24
3 4 6 2 2 2 5 12 7 7 6 10 11 11 11 14 17 19 20 22 25 27 27 26 25 22 21 18 16 15 15 16 14 12 12 15 18 21 23 22 20 22 22 23
7 6 7 13 11 7 7 7 7 2 6 9 8 11 14 16 19 21 23 25 27 27 28 27 26 24 21 20 17 15 16 16 13 12 13 16 20 22 21 18 18 19 20 22
6 11 14 14 10 5 6 4 3 6 3 5 11 14 17 21 24 24 25 26 25 26 28 29 27 22 18 17 16 16 16 15 13 13 15 17 19 17 17 16 16 17 19 20
12 18 16 7 2 5 7 5 6 4 7 9 12 17 21 24 24 25 25 24 24 26 29 30 26 22 16 20 13 15 15 13 12 12 14 16 15 14 13 13 16 16 16 17
4 5 9 4 7 9 9 5 4 6 8 11 16 21 22 24 25 25 25 25 26 28 28 29 23 20 16 11 16 15 17 10 10 14 12 12 12 13 16 19 18 16 17 19
13 7 5 6 3 3 3 4 6 9 13 20 21 20 22 26 25 27 26 27 27 27 27 27 22 14 10 15 14 16 14 14 10 11 9 9 11 13 13 13 19 20 20 19
9 7 3 5 3 2 4 6 11 16 19 21 21 22 24 27 28 27 27 27 25 25 25 20 13 13 12 13 14 14 14 11 9 7 6 9 11 11 11 13 15 14 16 20
2 2 4 7 2 4 8 13 17 20 22 23 22 24 26 28 29 28 26 24 22 23 18 14 14 11 11 12 13 12 9 6 7 7 9 13 12 10 11 12 13 13 14 13
9 8 4 1 5 9 13 16 19 21 22 25 26 28 26 26 27 32 31 26 27 23 17 15 10 11 12 12 9 10 8 7 5 6 8 9 8 9 11 11 12 12 13 13
8 4 2 5 10 13 14 16 17 21 27 26 30 33 34 34 34 33 31 23 23 20 14 10 11 11 13 10 8 8 7 6 6 6 7 8 8 8 10 10 10 11 11 12
4 0 5 9 12 14 17 19 24 25 28 30 33 34 34 33 34 34 30 22 23 16 11 11 12 13 12 7 9 8 5 6 5 7 7 8 8 8 8 9 9 9 10 10
3 7 12 15 15 19 22 24 25 27 30 31 32 32 32 33 32 29 22 22 23 15 10 11 13 12 8 9 9 8 6 5 6 6 9 10 9 8 9 8 9 8 8 9
10 14 16 17 17 19 23 23 25 29 31 31 31 31 33 34 28 21 20 23 22 12 12 12 14 12 10 10 11 7 9 7 7 7 9 10 9 9 9 10 10 8 8 8
16 17 18 18 20 23 23 23 26 29 30 28 28 30 30 31 26 22 21 23 17 9 9 10 11 10 8 7 8 10 7 5 6 8 9 8 10 10 9 9 10 9 8 7
20 22 20 19 23 26 24 24 27 29 28 29 31 27 26 28 27 25 23 22 14 10 10 11 9 11 8 9 6 8 6 5 7 8 9 10 10 10 9 10 10 9 8 8
23 20 20 23 24 25 25 26 28 29 29 30 30 25 23 25 25 25 25 21 9 9 11 10 10 11 10 9 8 8 6 5 5 6 7 7 9 10 10 11 10 11 10 9
20 20 23 24 24 24 27 28 30 29 29 30 27 27 24 25 27 24 22 12 10 10 12 10 10 11 11 11 9 10 9 9 9 9 10 12 11 12 11 11 12 12 12 13
21 23 24 23 22 21 26 30 31 29 26 27 28 27 23 20 23 26 17 10 11 12 11 11 12 12 13 12 12 11 12 11 10 9 9 10 10 11 11 11 12 13 13 14
24 23 21 21 22 25 28 27 28 26 23 28 30 29 26 21 23 20 12 11 12 12 12 11 11 13 14 14 14 13 12 11 11 10 9 9 9 10 12 12 12 13 14 14
24 20 19 20 21 24 24 24 27 25 22 24 29 28 27 20 19 16 13 13 15 16 18 18 15 14 14 15 15 12 13 12 11 10 9 9 9 10 11 11 12 13 14 15
Wind_Direction
289 292 290 285 275 266 249 249 264 273 295 313 327 329 325 307 317 322 323 326 325 313 311 311 304 301 306 318 323 322 317 320 319 328 331 324 319 318 318 316 316 314 314 313
290 299 294 293 271 263 258 255 260 273 283 349 327 326 331 324 318 318 317 329 322 321 316 308 305 310 318 322 316 309 317 314 318 323 325 322 322 322 319 320 321 322 320 318
281 316 315 277 255 168 251 205 279 289 334 332 343 330 324 324 325 329 333 324 328 313 311 309 313 308 315 318 310 310 313 304 313 315 321 323 322 322 322 323 323 322 320 319
288 303 274 46 299 285 290 291 284 276 297 323 322 326 324 342 337 332 323 312 318 314 312 314 307 304 311 318 310 303 305 298 299 312 316 321 321 322 322 322 322 322 319 317
261 265 295 293 79 71 271 293 358 355 337 328 326 323 344 4 317 314 311 314 312 312 309 309 299 301 309 309 303 300 300 293 297 305 311 317 317 319 322 321 322 320 318 317
190 257 266 6 44 325 294 264 49 349 337 322 326 316 318 326 311 319 314 314 315 316 313 308 296 299 299 301 302 297 292 294 292 296 306 311 315 319 322 323 319 313 313 317
242 250 272 326 50 3 283 5 333 337 326 318 313 280 310 318 315 314 313 314 316 318 316 311 305 299 294 299 299 298 299 295 291 291 300 310 315 319 321 320 318 313 321 323
203 257 266 90 311 271 313 311 294 299 316 313 307 308 314 315 317 319 317 320 322 320 318 316 310 300 293 298 300 298 303 300 286 288 301 311 316 319 319 318 314 314 321 324
195 242 282 299 296 275 292 275 289 290 313 310 308 314 319 320 323 320 319 320 321 320 319 321 316 301 290 298 296 297 302 298 287 290 303 313 317 317 320 317 313 319 323 323
278 260 271 298 302 254 275 275 319 312 283 288 306 319 322 322 322 319 319 320 321 323 323 323 321 304 286 290 296 302 303 298 290 296 298 313 315 318 317 316 314 323 323 323
274 274 289 277 325 332 312 297 318 264 287 310 320 320 319 316 316 316 316 318 320 322 322 321 319 306 304 302 315 311 307 296 295 299 308 313 320 316 318 320 317 323 324 326
252 287 278 281 321 304 272 268 271 297 309 312 315 314 314 314 315 315 316 319 320 321 322 322 315 308 310 317 319 317 305 307 302 307 309 317 322 329 319 320 327 329 328 330
279 225 227 288 256 190 233 288 306 310 307 308 309 310 312 313 313 312 316 317 317 317 320 321 309 309 308 326 321 308 309 308 314 318 315 319 328 328 327 327 330 334 330 336
208 236 155 168 204 209 287 300 306 303 304 305 304 308 312 313 314 316 316 314 313 315 319 319 317 310 323 317 313 317 316 323 329 319 318 325 327 330 332 331 333 330 330 334
200 188 149 145 166 292 301 307 309 309 311 311 310 309 312 313 314 315 316 316 313 317 316 310 305 312 313 314 322 323 324 313 315 319 326 329 333 332 333 333 332 332 336 338
149 131 138 310 310 311 312 311 309 311 316 315 314 313 315 312 312 315 317 321 321 326 322 312 303 312 314 316 320 323 327 316 319 323 329 330 329 332 334 335 335 336 338 340
154 190 256 305 308 306 305 307 310 313 315 316 320 318 316 316 315 319 320 320 324 324 316 303 299 301 309 316 314 312 305 303 306 330 328 332 332 331 334 335 334 338 337 336
144 160 301 300 304 306 309 312 317 317 316 317 317 317 317 316 313 315 315 315 325 316 304 299 304 303 301 297 309 312 295 295 302 315 326 329 324 323 327 333 334 335 338 337
302 311 312 310 307 308 313 313 314 313 317 319 319 318 317 317 318 313 310 311 320 305 293 299 303 308 295 296 308 311 309 294 286 301 316 327 330 312 317 325 330 328 332 339
313 310 306 303 301 307 308 311 312 315 320 319 318 318 317 321 324 315 308 304 311 277 283 294 304 312 302 299 300 300 302 293 287 289 315 325 323 315 311 321 330 327 324 328
309 306 302 303 304 308 309 311 313 316 318 320 322 321 317 322 325 318 305 301 309 270 280 271 283 308 297 284 301 304 311 284 286 296 302 308 321 319 311 314 321 323 318 319
308 306 300 298 304 308 311 313 317 317 315 318 323 322 320 321 325 317 312 306 288 262 278 274 276 297 293 300 280 315 310 290 294 299 301 305 317 322 320 314 312 316 318 316
300 297 296 303 305 305 307 315 318 318 313 314 320 322 318 318 319 319 313 309 260 253 266 272 280 296 309 304 288 303 306 310 316 309 309 313 321 326 322 321 316 318 322 318
295 295 299 304 305 305 307 315 319 318 313 316 323 326 321 317 319 321 312 287 250 260 264 267 280 291 299 309 288 282 287 291 292 295 297 306 320 327 325 325 326 326 324 326
296 298 300 302 304 306 310 315 314 316 313 317 324 327 328 322 319 316 301 260 252 260 257 267 275 276 290 294 297 287 284 286 292 295 290 294 293 308 317 320 321 325 325 323
294 295 295 298 303 307 311 312 313 315 313 318 319 323 322 321 315 311 287 265 260 246 248 264 275 279 285 287 290 285 283 280 283 289 294 299 303 303 307 310 319 320 321 324
292 292 298 304 308 308 308 305 307 312 311 312 313 321 320 319 312 303 283 266 259 262 264 267 267 280 286 282 285 279 278 277 280 283 286 291 301 307 311 310 309 315 314 313